Unsubscribe Automatically:

[TLELIST] 0 HST 1 20580U 90037B 26254.24165439 .00004921 00000-0 14921-3 0 9993 2 20580 28.4728 212.0253 0001743 28.7294 331.3398 15.31612289801771 0 ISS (ZARYA) 1 25544U 98067A 26254.17569693 .00004925 00000-0 97240-4 0 9991 2 25544 51.6305 234.5133 0004993 127.7196 232.4246 15.49076359585089 0 CXO 1 25867U 99040B 26256.64753562 .00000750 00000-0 00000-0 0 9991 2 25867 57.3946 114.3238 7696466 309.4554 0.6118 0.37808225 17661